Location: Staunton
(38.1490°N, 79.0720°W)
Time: 22:17:21
(UTC-05:00)

ISS - Pass Details

Date: 24 February 2021
Orbit: 417 x 422 km, 51.6° (Epoch: 26 February)

Event Time Altitude Azimuth Distance (km) Brightness Sun altitude
Exits shadow 04:14:32 10° 60° (ENE) 1,490 -0.2 -32.1°
Drops below altitude 10° 04:14:38 10° 60° (ENE) 1,527 -0.1 -32.1°
Sets 04:16:41 0° 55° (NE) 2,360 1.0 -31.7°
